星链-4193 (STARLINK-4193 )

导读

STARLINK-4193是美国太空探索技术公司星链(Starlink)星座中的卫星,于2022年6月17日发射升空,归属星链互联网卫星星座组网,为全球提供低延迟、高速率的卫星互联网服务,运行在近地轨道,是星链大规模组网建设中的组成单元。

基本信息
目录编号:
52875
目录名称:
STARLINK-4193
国际标识:
2022-062AX
轨道中心:
EARTH
卫星名称:
星链-4193
卫星全名:
星链-4193 (STARLINK-4193 )
卫星状态:
在轨 (已飞行1540 天)
发射日期:
2022-06-17 UTC
国别 :
美国 (US)
星等 :
--
轨道信息
数据来源 国际轨道数据 AOE轨道数据
星历时间 2026-09-04T09:50:11+0800
7小时前
查看轨道信息
2026-09-01T02:00:00+0800
3天前
查看轨道信息
半长轴 6840.878km 6840.856km
偏心率 0.0001294 0.000158
轨道倾角 53.158° 53.160°
近地点辐角 75.714° 82.904°
升交点赤经 280.193° 295.747°
平近点角 284.400° 251.875°
近地点 461.855km 461.638km
远地点 463.627km 463.8km
周期 93.849分钟 93.848分钟
每日圈数 15.343874 15.34395
详细信息
固有亮度:
5
最大亮度:
2.5
卫星平台:
Starlink v1.5
覆盖范围:
全球
运营商:
太空探索技术公司
运营商所在国:
美国
制造商(研发单位):
太空探索技术公司
制造商所在国:
美国
使用方式:
暂无
卫星简介
星链(Starlink)计划是由太空探索技术公司(SpaceX)提出的一个巨型低轨卫星互联网星座项目,计划在2019年至2024年间在太空搭建由约1.2万颗卫星组成的“星链”网络,其中1584颗将部署在地球上空550千米处的近地轨道,并从2020年开始工作。该卫星仍在工作。
2D轨道图
3D轨道图
轨道高度分析图
轨道倾角分析图
轨道综合分析图
查看轨道综合分析图
交会数据列表
事件ID 空间交会对象 最接近时刻(TCA) 交会距离 交会风险概率(CRP) 交会风险指数(CRI) 操作
CDM_260905-044405-287506-568121
2026-09-05T
04:44:25+0000
0.240 km
中距离
4.354416E-4 高风险 0.88
CDM_260905-114605-287506-568121
2026-09-05T
11:46:29+0000
0.420 km
远距离
1.592292E-4 高风险 0.79
CDM_260906-114405-287506-621521
2026-09-06T
11:44:35+0000
2.205 km
极远距离
1.995888E-6 低风险 0.41
CDM_260905-061805-287506-568121
2026-09-05T
06:18:13+0000
2.643 km
极远距离
8.377293E-7 极低风险 0.33
CDM_260905-031005-287506-568121
2026-09-05T
03:10:38+0000
2.643 km
极远距离
8.373281E-7 极低风险 0.33
CDM_260905-132005-287506-568121
2026-09-05T
13:20:17+0000
2.708 km
极远距离
8.085033E-7 极低风险 0.33